This is the latest recevied weather packets stored in our database for station/object KD2ZLA. If no packets are shown the sender has not sent any weather packets the latest 10 day(s).
| Time | Temp. | Humidity | Pressure | Rain* | Wind** | Luminosity | Snow |
|---|---|---|---|---|---|---|---|
| 1777757164 | 7.22° C | 65% | 1012.2 hPa | 0 mm | - | 161 W/m² | - |
| 1777756861 | 7.22° C | 65% | 1012 hPa | 0 mm | - | 171 W/m² | - |
| 1777756556 | 7.22° C | 63% | 1012.1 hPa | 0 mm | - | 163 W/m² | - |
| 1777756254 | 7.22° C | 64% | 1012.1 hPa | 0 mm | - | 150 W/m² | - |
| 1777755950 | 7.22° C | 63% | 1011.8 hPa | 0 mm | - | 119 W/m² | - |
| 1777755648 | 7.22° C | 63% | 1011.9 hPa | 0 mm | - | 94 W/m² | - |
| 1777755344 | 7.22° C | 65% | 1011.7 hPa | 0 mm | - | 76 W/m² | - |
| 1777755042 | 7.22° C | 64% | 1011.8 hPa | 0 mm | - | 65 W/m² | - |
| 1777754738 | 7.22° C | 64% | 1011.9 hPa | 0 mm | - | 51 W/m² | - |
| 1777754436 | 7.78° C | 58% | 1011.8 hPa | 0 mm | - | 38 W/m² | - |
| 1777754133 | 7.78° C | 57% | 1011.7 hPa | 0 mm | - | 46 W/m² | - |
| 1777753830 | 7.78° C | 58% | 1011.6 hPa | 0 mm | - | 77 W/m² | - |
| 1777753526 | 7.78° C | 57% | 1011.6 hPa | 0 mm | - | 105 W/m² | - |
| 1777753225 | 7.78° C | 57% | 1011.7 hPa | 0 mm | - | 109 W/m² | - |
| 1777752920 | 7.78° C | 57% | 1011.6 hPa | 0 mm | - | 101 W/m² | - |
| 1777752617 | 7.78° C | 58% | 1011.7 hPa | 0 mm | - | 109 W/m² | - |
| 1777752313 | 7.78° C | 56% | 1011.9 hPa | 0 mm | - | 110 W/m² | - |
| 1777752011 | 8.33° C | 58% | 1011.8 hPa | 0 mm | - | 101 W/m² | - |
| 1777751708 | 8.33° C | 55% | 1011.7 hPa | 0 mm | - | 98 W/m² | - |
| 1777751403 | 8.33° C | 55% | 1011.9 hPa | 0 mm | - | 123 W/m² | - |
| 1777751101 | 8.33° C | 55% | 1011.8 hPa | 0 mm | - | 148 W/m² | - |
| 1777750796 | 8.33° C | 56% | 1012 hPa | 0 mm | - | 199 W/m² | - |
| 1777750494 | 8.33° C | 54% | 1011.9 hPa | 0 mm | - | 300 W/m² | - |
| 1777750190 | 8.33° C | 56% | 1011.9 hPa | 0 mm | - | 363 W/m² | - |
| 1777749887 | 8.33° C | 57% | 1012.1 hPa | 0 mm | - | 331 W/m² | - |
* Rain latest hour (hover to see other rain measurements)
** Current wind speed in m/s (hover to see current wind gust speed)